Regional Weather Roundup
Issued by NWS

Home | Current Version | Previous Version | Graphics & Text | Print | Product List | Glossary On
Versions: 1 2 3 4 5 6 7 8 9 10 11 12 13 14 15 16 17 18 19 20 21 22 23 24 25 26 27 28 29 30 31 32 33 34 35 36 37 38 39 40 41 42 43 44 45 46 47 48 49 50
000
ASUS43 KOAX 030010
RWRNE

WEATHER ROUNDUP FOR NEBRASKA
NATIONAL WEATHER SERVICE OMAHA NE
700 PM CDT THU JUL 02 2015

NOTES: SATELLITE DATA IS BEING USED TO AUGMENT CLOUD COVER ABOVE
       12000 FEET.
       "FAIR" INDICATES FEW OR NO CLOUDS BELOW 12,000 FEET WITH NO
       SIGNIFICANT WEATHER AND/OR OBSTRUCTIONS TO VISIBILITY.

  * THESE STATIONS DO NOT REPORT WEATHER SUCH AS RAIN...SNOW OR FOG.

NEZ001>004-019>022-054>056-030100-
NEBRASKA PANHANDLE

CITY           SKY/WX    TMP DP  RH WIND       PRES   REMARKS
SCOTTSBLUFF    SUNNY     83  55  38 N12       30.08F
6HR MIN TEMP:  81; 6HR MAX TEMP:  86;

ALLIANCE       SUNNY     78  59  51 N6        30.07F
6HR MIN TEMP:  76; 6HR MAX TEMP:  80;

CHADRON        MOSUNNY   79  59  50 NE14      30.06S
6HR MIN TEMP:  76; 6HR MAX TEMP:  82;

KIMBALL          N/A    N/A N/A N/A MISG        N/A
SIDNEY         SUNNY     79  54  41 N8        30.11F
6HR MIN TEMP:  78; 6HR MAX TEMP:  84;

$$

NEZ057>060-069>072-079>082-030100-
SOUTHWEST NEBRASKA

CITY           SKY/WX    TMP DP  RH WIND       PRES   REMARKS
NORTH PLATTE   MOSUNNY   82  57  42 N12       29.99F
6HR MIN TEMP:  79; 6HR MAX TEMP:  86;

IMPERIAL       SUNNY     85  55  35 N10       30.03F
6HR MIN TEMP:  82; 6HR MAX TEMP:  88;

LEXINGTON      SUNNY     82  56  40 N15G22    29.96F
MCCOOK         MOSUNNY   86  60  41 N14       29.97F
6HR MIN TEMP:  85; 6HR MAX TEMP:  88;

OGALLALA       SUNNY     81  58  45 N9        30.04F
$$

NEZ005>010-023>029-035>040-094-030100-
NORTH CENTRAL NEBRASKA

CITY           SKY/WX    TMP DP  RH WIND       PRES   REMARKS
VALENTINE      SUNNY     78  61  55 N9        30.00S
6HR MIN TEMP:  76; 6HR MAX TEMP:  82;

AINSWORTH      MOSUNNY   77  60  56 N10       30.00S
BROKEN BOW     SUNNY     80  60  50 N10G18    29.96F
6HR MIN TEMP:  78; 6HR MAX TEMP:  84;

O`NEILL        PTSUNNY   72  65  80 NE6       29.98S
ORD            MOSUNNY   78  62  57 N15       29.93F
6HR MIN TEMP:  78; 6HR MAX TEMP:  86;

THEDFORD       PTSUNNY   78  58  48 NW13      30.02F
$$

NEZ041-046>049-061>064-073>077-083>087-030100-
SOUTH CENTRAL NEBRASKA

CITY           SKY/WX    TMP DP  RH WIND       PRES   REMARKS
GRAND ISLAND   SUNNY     74  66  76 NE16      29.93R
6HR MIN TEMP:  68; 6HR MAX TEMP:  86; 6HR PCP:  0.37;

AURORA         LGT RAIN  68  68  98 E3        29.92F
HASTINGS       MOSUNNY   80  67  64 NE8       29.91S
6HR MIN TEMP:  74; 6HR MAX TEMP:  85; 6HR PCP:  0.13;

HEBRON         PTSUNNY   73  67  80 E7        29.90F
HOLDREGE       SUNNY     81  57  43 NW9       29.94F
KEARNEY *      SUNNY     82  61  47 N16       29.93R
YORK           MOSUNNY   72  70  94 S6        29.92F
$$

NEZ011>018-030>034-042>045-030100-
NORTHEAST NEBRASKA

CITY           SKY/WX    TMP DP  RH WIND       PRES   REMARKS
NORFOLK        LGT RAIN  66  64  93 E10       29.97S FOG
6HR MIN TEMP:  65; 6HR MAX TEMP:  67; 6HR PCP:  0.46;

ALBION         PTSUNNY   69  62  78 NE15      29.96S
BLAIR          CLOUDY    68  62  83 E6        29.95S
COLUMBUS *     CLOUDY    68  61  77 E9G16     29.94S
FREMONT        CLOUDY    69  64  84 E9        29.94F HAZE
TEKAMAH        CLOUDY    71  63  75 E9        29.95F
6HR MIN TEMP:  67; 6HR MAX TEMP:  71; 6HR PCP:  0.04;

WAYNE          CLOUDY    66  63  89 E9        29.98S
$$

NEZ050>053-065>068-078-088>093-030100-
SOUTHEAST NEBRASKA

CITY           SKY/WX    TMP DP  RH WIND       PRES   REMARKS
LINCOLN        CLOUDY    72  66  81 E14       29.92S
6HR MIN TEMP:  65; 6HR MAX TEMP:  77; 6HR PCP:  0.28;

OMAHA EPPLEY   LGT RAIN  70  63  78 E5        29.94F
6HR MIN TEMP:  66; 6HR MAX TEMP:  71; 6HR PCP:  0.05;

BEATRICE       PTSUNNY   72  67  85 E6        29.91S
FALLS CITY     CLOUDY    70  67  90 SE7       29.92S
6HR MIN TEMP:  69; 6HR MAX TEMP:  71; 6HR PCP:  0.37;

NEBRASKA CITY  CLOUDY    68  66  94 E10       29.94S FOG
PLATTSMOUTH    CLOUDY    70  64  82 E9        29.94S
$$

NEZ044-045-051>053-067-030100-
OMAHA AREA

CITY           SKY/WX    TMP DP  RH WIND       PRES   REMARKS
OMAHA EPPLEY   LGT RAIN  70  63  78 E5        29.94F
6HR MIN TEMP:  66; 6HR MAX TEMP:  71; 6HR PCP:  0.05;

BLAIR          CLOUDY    68  62  83 E6        29.95S
FREMONT        CLOUDY    69  64  84 E9        29.94F HAZE
MILLARD        PTSUNNY   70  63  79 E5        29.94S
OFFUTT AFB     MOSUNNY   70  64  79 E8        29.93S
PLATTSMOUTH    CLOUDY    70  64  82 E9        29.94S
WAHOO          CLOUDY    70  65  85 E10       29.94S
$$



USA.gov is the U.S. government's official web portal to all federal, state and local government web resources and services.